2015-11-12, 07:01:04,VALID,917.513,VALID,0,VALID,102.581,VALID,123.128,VALID,19.2558,VALID,76,VALID,0,
2015-11-12, 07:02:04,VALID,917.562,VALID,0,VALID,102.573,VALID,129.359,VALID,19.3352,VALID,76,VALID,0,
2015-11-12, 07:03:04,VALID,917.59,VALID,0,VALID,102.55,VALID,136.773,VALID,19.3923,VALID,76,VALID,0,
2015-11-12, 07:04:04,VALID,917.593,VALID,0,VALID,102.558,VALID,144.079,VALID,19.5093,VALID,76,VALID,0,
2015-11-12, 07:05:04,VALID,917.643,VALID,0,VALID,102.565,VALID,149.558,VALID,19.5873,VALID,76,VALID,0,
2015-11-12, 07:06:04,VALID,917.662,VALID,0,VALID,102.558,VALID,151.277,VALID,19.7238,VALID,76,VALID,0,
2015-11-12, 07:07:04,VALID,917.658,VALID,0,VALID,102.573,VALID,156.005,VALID,19.8408,VALID,76,VALID,0,
2015-11-12, 07:08:04,VALID,917.675,VALID,0,VALID,102.466,VALID,159.55,VALID,19.8588,VALID,76,VALID,0,
2015-11-12, 07:09:04,VALID,917.733,VALID,0,VALID,102.245,VALID,160.517,VALID,19.9578,VALID,76,VALID,0,
2015-11-12, 07:10:04,VALID,917.729,VALID,0,VALID,102.039,VALID,165.244,VALID,20.0358,VALID,76,VALID,0,
2015-11-12, 07:11:04,VALID,917.73,VALID,0,VALID,101.574,VALID,170.831,VALID,20.0358,VALID,76,VALID,0,
2015-11-12, 07:12:04,VALID,917.77,VALID,0,VALID,100.965,VALID,175.022,VALID,20.0148,VALID,76,VALID,0,
2015-11-12, 07:13:04,VALID,917.812,VALID,0,VALID,100.812,VALID,177.493,VALID,20.0944,VALID,76,VALID,0,
2015-11-12, 07:14:04,VALID,917.831,VALID,0,VALID,100.881,VALID,179.319,VALID,20.0928,VALID,76,VALID,0,
2015-11-12, 07:15:04,VALID,917.839,VALID,0,VALID,100.949,VALID,179.642,VALID,20.1513,VALID,57,VALID,0,
2015-11-12, 07:16:04,VALID,917.869,VALID,0,VALID,101.018,VALID,176.418,VALID,20.2293,VALID,57,VALID,0,
2015-11-12, 07:17:04,VALID,917.86,VALID,0,VALID,101.147,VALID,175.774,VALID,20.3058,VALID,57,VALID,0,
2015-11-12, 07:18:04,VALID,917.881,VALID,0,VALID,101.102,VALID,178.997,VALID,20.4244,VALID,57,VALID,0,
2015-11-12, 07:19:04,VALID,917.881,VALID,0,VALID,100.82,VALID,183.509,VALID,20.5024,VALID,57,VALID,0,
2015-11-12, 07:20:04,VALID,917.883,VALID,0,VALID,100.057,VALID,185.873,VALID,20.5414,VALID,57,VALID,0,
2015-11-12, 07:21:04,VALID,917.909,VALID,0,VALID,99.3789,VALID,184.047,VALID,20.5804,VALID,57,VALID,0,
2015-11-12, 07:22:04,VALID,917.907,VALID,0,VALID,98.6699,VALID,185.981,VALID,20.6179,VALID,78,VALID,0,
2015-11-12, 07:23:04,VALID,917.937,VALID,0,VALID,97.1147,VALID,190.278,VALID,20.5999,VALID,79,VALID,0,
2015-11-12, 07:24:04,VALID,917.942,VALID,0,VALID,96.4819,VALID,190.601,VALID,20.5999,VALID,98,VALID,0,
2015-11-12, 07:25:04,VALID,917.979,VALID,0,VALID,95.5519,VALID,193.502,VALID,20.5609,VALID,130,VALID,0,
2015-11-12, 07:26:04,VALID,917.972,VALID,0,VALID,95.6205,VALID,197.369,VALID,20.5009,VALID,159,VALID,0,
2015-11-12, 07:27:04,VALID,917.962,VALID,0,VALID,95.8797,VALID,203.386,VALID,20.4813,VALID,145,VALID,0,
2015-11-12, 07:28:04,VALID,917.994,VALID,0,VALID,96.7183,VALID,207.147,VALID,20.5204,VALID,141,VALID,0,
2015-11-12, 07:29:04,VALID,917.986,VALID,0,VALID,97.1147,VALID,209.725,VALID,20.5594,VALID,139,VALID,0,
2015-11-12, 07:30:04,VALID,918.028,VALID,0,VALID,97.2824,VALID,208.758,VALID,20.6569,VALID,148,VALID,0,
2015-11-12, 07:31:04,VALID,917.993,VALID,0,VALID,96.6039,VALID,206.609,VALID,20.717,VALID,144,VALID,0.814844,
2015-11-12, 07:32:04,VALID,917.996,VALID,0,VALID,95.529,VALID,206.609,VALID,20.7365,VALID,146,VALID,1.37773,
2015-11-12, 07:33:04,VALID,917.97,VALID,0,VALID,95.5824,VALID,211.981,VALID,20.7365,VALID,144,VALID,1.30195,
2015-11-12, 07:34:04,VALID,918.001,VALID,0,VALID,95.6586,VALID,219.717,VALID,20.7349,VALID,152,VALID,1.05313,
2015-11-12, 07:35:04,VALID,917.99,VALID,0,VALID,95.6891,VALID,229.709,VALID,20.7755,VALID,152,VALID,1.29141,
2015-11-12, 07:36:04,VALID,917.951,VALID,0,VALID,95.8492,VALID,239.701,VALID,20.7755,VALID,140,VALID,1.08086,
2015-11-12, 07:37:04,VALID,917.987,VALID,0,VALID,95.6662,VALID,250.445,VALID,20.8519,VALID,135,VALID,1.13672,
2015-11-12, 07:38:04,VALID,917.992,VALID,0,VALID,96.6497,VALID,263.338,VALID,20.891,VALID,107,VALID,0.846875,
2015-11-12, 07:39:04,VALID,917.996,VALID,0,VALID,96.3905,VALID,272.686,VALID,20.93,VALID,143,VALID,0,
2015-11-12, 07:40:04,VALID,918.007,VALID,0,VALID,96.8479,VALID,282.57,VALID,21.008,VALID,124,VALID,1.20742,
2015-11-12, 07:41:04,VALID,917.983,VALID,0,VALID,96.9394,VALID,290.306,VALID,21.0665,VALID,152,VALID,0,
2015-11-12, 07:42:04,VALID,918.004,VALID,0,VALID,96.3524,VALID,302.769,VALID,21.1055,VALID,133,VALID,0,
2015-11-12, 07:43:04,VALID,918.011,VALID,0,VALID,95.4604,VALID,308.464,VALID,21.1445,VALID,115,VALID,0,
2015-11-12, 07:44:04,VALID,917.992,VALID,0,VALID,96.4819,VALID,314.373,VALID,21.2616,VALID,113,VALID,0,
2015-11-12, 07:45:04,VALID,918.022,VALID,0,VALID,96.36,VALID,316.844,VALID,21.338,VALID,113,VALID,0,
2015-11-12, 07:46:04,VALID,918.031,VALID,0,VALID,94.0577,VALID,314.803,VALID,21.3981,VALID,117,VALID,0,
2015-11-12, 07:47:04,VALID,918.036,VALID,0,VALID,95.7501,VALID,293.422,VALID,21.5152,VALID,159,VALID,0,
2015-11-12, 07:48:04,VALID,918.048,VALID,0,VALID,89.255,VALID,265.702,VALID,21.5347,VALID,149,VALID,0,
2015-11-12, 07:49:04,VALID,918.043,VALID,0,VALID,94.5151,VALID,242.172,VALID,21.5932,VALID,148,VALID,0,
2015-11-12, 07:50:04,VALID,918.074,VALID,0,VALID,95.4375,VALID,217.139,VALID,21.7477,VALID,141,VALID,0,
2015-11-12, 07:51:04,VALID,918.06,VALID,0,VALID,90.9092,VALID,203.494,VALID,21.7883,VALID,176,VALID,0,
2015-11-12, 07:52:04,VALID,918.076,VALID,0,VALID,86.9374,VALID,205.213,VALID,21.7298,VALID,174,VALID,0,
2015-11-12, 07:53:04,VALID,918.08,VALID,0,VALID,88.6756,VALID,203.386,VALID,21.6128,VALID,168,VALID,0,
2015-11-12, 07:54:04,VALID,918.067,VALID,0,VALID,94.3855,VALID,200.163,VALID,21.6323,VALID,168,VALID,0,
2015-11-12, 07:55:04,VALID,918.063,VALID,0,VALID,91.3895,VALID,193.072,VALID,21.6501,VALID,143,VALID,0,
2015-11-12, 07:56:04,VALID,918.06,VALID,0,VALID,94.1034,VALID,198.874,VALID,21.6518,VALID,152,VALID,0,
2015-11-12, 07:57:04,VALID,918.062,VALID,0,VALID,87.898,VALID,216.709,VALID,21.5737,VALID,148,VALID,0,
2015-11-12, 07:58:04,VALID,918.057,VALID,0,VALID,88.0047,VALID,233.685,VALID,21.4762,VALID,141,VALID,0,
2015-11-12, 07:59:04,VALID,918.057,VALID,0,VALID,91.9231,VALID,250.768,VALID,21.4567,VALID,157,VALID,0,
2015-11-12, 08:00:04,VALID,918.06,VALID,0,VALID,88.95,VALID,254.421,VALID,21.4762,VALID,159,VALID,0,
2015-11-12, 08:01:04,VALID,918.062,VALID,0,VALID,91.0617,VALID,260.545,VALID,21.4957,VALID,157,VALID,0,
2015-11-12, 08:02:04,VALID,918.086,VALID,0,VALID,88.7213,VALID,260.008,VALID,21.5347,VALID,162,VALID,0,
2015-11-12, 08:03:04,VALID,918.096,VALID,0,VALID,86.4724,VALID,258.826,VALID,21.5347,VALID,158,VALID,0,
2015-11-12, 08:04:04,VALID,918.106,VALID,0,VALID,86.3962,VALID,270,VALID,21.5737,VALID,163,VALID,0,
2015-11-12, 08:05:04,VALID,918.128,VALID,0,VALID,86.48,VALID,286.76,VALID,21.6501,VALID,160,VALID,0,
2015-11-12, 08:06:04,VALID,918.136,VALID,0,VALID,86.4038,VALID,302.125,VALID,21.7883,VALID,159,VALID,0,
2015-11-12, 08:07:04,VALID,918.149,VALID,0,VALID,87.2957,VALID,300.943,VALID,22.003,VALID,121,VALID,0,
2015-11-12, 08:08:04,VALID,918.143,VALID,0,VALID,85.2908,VALID,292.885,VALID,22.2354,VALID,121,VALID,0,
2015-11-12, 08:09:04,VALID,918.156,VALID,0,VALID,81.6392,VALID,281.603,VALID,22.4306,VALID,169,VALID,0,
2015-11-12, 08:10:04,VALID,918.193,VALID,0,VALID,81.4105,VALID,297.182,VALID,22.5672,VALID,158,VALID,0,
2015-11-12, 08:11:04,VALID,918.171,VALID,0,VALID,81.0369,VALID,307.067,VALID,22.6647,VALID,180,VALID,0,
2015-11-12, 08:12:04,VALID,918.194,VALID,0,VALID,81.1513,VALID,307.282,VALID,22.663,VALID,144,VALID,0,
2015-11-12, 08:13:04,VALID,918.214,VALID,0,VALID,80.671,VALID,312.654,VALID,22.7038,VALID,137,VALID,0,
2015-11-12, 08:14:04,VALID,918.203,VALID,0,VALID,81.6849,VALID,316.414,VALID,22.7233,VALID,153,VALID,0,
2015-11-12, 08:15:04,VALID,918.215,VALID,0,VALID,79.9086,VALID,321.679,VALID,22.7818,VALID,176,VALID,0,
2015-11-12, 08:16:04,VALID,918.213,VALID,0,VALID,80.1755,VALID,331.993,VALID,22.8421,VALID,155,VALID,0,
2015-11-12, 08:17:04,VALID,918.239,VALID,0,VALID,80.084,VALID,338.655,VALID,22.8616,VALID,173,VALID,0,
2015-11-12, 08:18:04,VALID,918.278,VALID,0,VALID,81.2046,VALID,354.663,VALID,22.8989,VALID,173,VALID,0,
2015-11-12, 08:19:04,VALID,918.236,VALID,0,VALID,78.8337,VALID,356.06,VALID,22.8989,VALID,158,VALID,0,
2015-11-12, 08:20:04,VALID,918.234,VALID,0,VALID,79.4131,VALID,350.688,VALID,22.9185,VALID,155,VALID,0,
2015-11-12, 08:21:04,VALID,918.257,VALID,0,VALID,79.1997,VALID,358.424,VALID,23.0356,VALID,134,VALID,0,
2015-11-12, 08:22:04,VALID,918.245,VALID,0,VALID,78.5212,VALID,363.259,VALID,23.1331,VALID,166,VALID,0,
2015-11-12, 08:23:04,VALID,918.259,VALID,0,VALID,77.8198,VALID,367.234,VALID,23.2307,VALID,167,VALID,0,
2015-11-12, 08:24:04,VALID,918.247,VALID,0,VALID,78.0104,VALID,369.168,VALID,23.2502,VALID,146,VALID,0,
2015-11-12, 08:25:04,VALID,918.282,VALID,0,VALID,77.2404,VALID,373.036,VALID,23.2893,VALID,169,VALID,0,
2015-11-12, 08:26:04,VALID,918.259,VALID,0,VALID,77.5683,VALID,379.267,VALID,23.2698,VALID,163,VALID,0,
2015-11-12, 08:27:04,VALID,918.268,VALID,0,VALID,79.0015,VALID,380.986,VALID,23.3283,VALID,143,VALID,0,
2015-11-12, 08:28:04,VALID,918.288,VALID,0,VALID,78.4983,VALID,376.474,VALID,23.3478,VALID,172,VALID,0,
2015-11-12, 08:29:04,VALID,918.247,VALID,0,VALID,79.2454,VALID,390.011,VALID,23.4437,VALID,177,VALID,0,
2015-11-12, 08:30:04,VALID,918.281,VALID,0,VALID,78.1858,VALID,403.334,VALID,23.4064,VALID,172,VALID,0,
2015-11-12, 08:31:04,VALID,918.231,VALID,0,VALID,77.553,VALID,404.409,VALID,23.4259,VALID,172,VALID,0,
2015-11-12, 08:32:04,VALID,918.26,VALID,0,VALID,80.3203,VALID,421.599,VALID,23.5235,VALID,167,VALID,0,
2015-11-12, 08:33:04,VALID,918.254,VALID,0,VALID,76.3256,VALID,423.963,VALID,23.5998,VALID,175,VALID,0,
2015-11-12, 08:34:04,VALID,918.246,VALID,0,VALID,77.6445,VALID,428.583,VALID,23.4845,VALID,179,VALID,0,
2015-11-12, 08:35:04,VALID,918.237,VALID,0,VALID,76.905,VALID,423.963,VALID,23.4845,VALID,171,VALID,0.00273437,
2015-11-12, 08:36:04,VALID,918.241,VALID,0,VALID,77.6902,VALID,415.582,VALID,23.4241,VALID,162,VALID,0,
2015-11-12, 08:37:04,VALID,918.254,VALID,0,VALID,78.3077,VALID,421.384,VALID,23.5626,VALID,145,VALID,0,
2015-11-12, 08:38:04,VALID,918.271,VALID,0,VALID,77.1795,VALID,436.104,VALID,23.6388,VALID,164,VALID,0,
2015-11-12, 08:39:04,VALID,918.252,VALID,0,VALID,76.6839,VALID,440.294,VALID,23.6584,VALID,174,VALID,0,
2015-11-12, 08:40:04,VALID,918.251,VALID,0,VALID,75.8377,VALID,445.666,VALID,23.7205,VALID,156,VALID,0,
2015-11-12, 08:41:04,VALID,918.265,VALID,0,VALID,75.8225,VALID,444.806,VALID,23.8163,VALID,158,VALID,0,
2015-11-12, 08:42:04,VALID,918.272,VALID,0,VALID,76.0969,VALID,445.558,VALID,23.8163,VALID,164,VALID,0,
2015-11-12, 08:43:04,VALID,918.288,VALID,0,VALID,77.8808,VALID,450.501,VALID,23.8944,VALID,161,VALID,0,
2015-11-12, 08:44:04,VALID,918.29,VALID,0,VALID,77.5759,VALID,450.608,VALID,24.0115,VALID,141,VALID,0,
2015-11-12, 08:45:04,VALID,918.296,VALID,0,VALID,76.4629,VALID,464.898,VALID,24.0701,VALID,185,VALID,0,
2015-11-12, 08:46:04,VALID,918.297,VALID,0,VALID,75.9445,VALID,465.22,VALID,24.2068,VALID,184,VALID,0,
2015-11-12, 08:47:04,VALID,918.325,VALID,0,VALID,75.6395,VALID,479.08,VALID,24.363,VALID,138,VALID,0,
2015-11-12, 08:48:04,VALID,918.301,VALID,0,VALID,74.7628,VALID,485.419,VALID,24.402,VALID,110,VALID,0.0242187,
2015-11-12, 08:49:04,VALID,918.336,VALID,0,VALID,73.5812,VALID,489.18,VALID,24.3416,VALID,151,VALID,0,
2015-11-12, 08:50:04,VALID,918.325,VALID,0,VALID,75.0906,VALID,500.353,VALID,24.3983,VALID,178,VALID,0,
2015-11-12, 08:51:04,VALID,918.348,VALID,0,VALID,75.9063,VALID,503.362,VALID,24.5564,VALID,127,VALID,0,
2015-11-12, 08:52:04,VALID,918.302,VALID,0,VALID,75.1669,VALID,506.37,VALID,24.6131,VALID,94,VALID,0,
2015-11-12, 08:53:04,VALID,918.344,VALID,0,VALID,75.2507,VALID,507.874,VALID,24.6521,VALID,110,VALID,0,
2015-11-12, 08:54:04,VALID,918.362,VALID,0,VALID,73.6041,VALID,518.726,VALID,24.8102,VALID,179,VALID,0.00585938,
2015-11-12, 08:55:04,VALID,918.379,VALID,0,VALID,69.4493,VALID,523.776,VALID,24.7888,VALID,145,VALID,0,
2015-11-12, 08:56:04,VALID,918.39,VALID,0,VALID,71.7058,VALID,525.495,VALID,24.8474,VALID,145,VALID,0,
2015-11-12, 08:57:04,VALID,918.406,VALID,0,VALID,69.8,VALID,532.156,VALID,24.9059,VALID,176,VALID,0,
2015-11-12, 08:58:04,VALID,918.401,VALID,0,VALID,69.8152,VALID,536.454,VALID,24.8278,VALID,139,VALID,0,
2015-11-12, 08:59:04,VALID,918.404,VALID,0,VALID,72.2471,VALID,544.512,VALID,24.8083,VALID,139,VALID,0,
2015-11-12, 09:00:04,VALID,918.42,VALID,0,VALID,67.9932,VALID,543.76,VALID,24.9859,VALID,140,VALID,0,
2015-11-12, 09:01:04,VALID,918.423,VALID,0,VALID,68.2677,VALID,530.115,VALID,25.1226,VALID,176,VALID,0,
2015-11-12, 09:02:04,VALID,918.409,VALID,0,VALID,67.147,VALID,514.751,VALID,25.3374,VALID,176,VALID,0,
2015-11-12, 09:03:04,VALID,918.426,VALID,0,VALID,64.3874,VALID,542.041,VALID,25.3355,VALID,142,VALID,0,
2015-11-12, 09:04:04,VALID,918.419,VALID,0,VALID,66.865,VALID,534.412,VALID,25.2379,VALID,138,VALID,0,
2015-11-12, 09:05:04,VALID,918.43,VALID,0,VALID,69.7314,VALID,537.85,VALID,25.2574,VALID,159,VALID,0,
2015-11-12, 09:06:04,VALID,918.419,VALID,0,VALID,70.4022,VALID,537.098,VALID,25.4351,VALID,168,VALID,0,
2015-11-12, 09:07:04,VALID,918.416,VALID,0,VALID,69.3731,VALID,557.62,VALID,25.4136,VALID,117,VALID,0,
2015-11-12, 09:08:04,VALID,918.439,VALID,0,VALID,65.0659,VALID,563.421,VALID,25.4331,VALID,167,VALID,0.461328,
2015-11-12, 09:09:04,VALID,918.41,VALID,0,VALID,67.7645,VALID,554.181,VALID,25.4546,VALID,155,VALID,0,
2015-11-12, 09:10:04,VALID,918.394,VALID,0,VALID,67.0174,VALID,554.611,VALID,25.4741,VALID,174,VALID,0,
2015-11-12, 09:11:04,VALID,918.398,VALID,0,VALID,66.4381,VALID,553.107,VALID,25.4331,VALID,147,VALID,0,
2015-11-12, 09:12:04,VALID,918.414,VALID,0,VALID,68.4125,VALID,571.157,VALID,25.5308,VALID,176,VALID,0,
2015-11-12, 09:13:04,VALID,918.42,VALID,0,VALID,65.2412,VALID,576.207,VALID,25.687,VALID,180,VALID,0.003125,
2015-11-12, 09:14:04,VALID,918.431,VALID,0,VALID,66.1255,VALID,559.768,VALID,25.7456,VALID,140,VALID,0,
2015-11-12, 09:15:04,VALID,918.409,VALID,0,VALID,65.3708,VALID,562.24,VALID,25.7261,VALID,146,VALID,0,
2015-11-12, 09:16:04,VALID,918.402,VALID,0,VALID,67.452,VALID,571.587,VALID,25.8823,VALID,192,VALID,0,
2015-11-12, 09:17:04,VALID,918.405,VALID,0,VALID,66.4991,VALID,573.628,VALID,26.0561,VALID,165,VALID,0,
2015-11-12, 09:18:04,VALID,918.406,VALID,0,VALID,62.5882,VALID,597.803,VALID,26.2339,VALID,173,VALID,0,
2015-11-12, 09:19:04,VALID,918.381,VALID,0,VALID,62.2681,VALID,594.042,VALID,26.3882,VALID,182,VALID,0,
2015-11-12, 09:20:04,VALID,918.407,VALID,0,VALID,63.8232,VALID,610.91,VALID,26.5444,VALID,182,VALID,0,
2015-11-12, 09:21:04,VALID,918.327,VALID,0,VALID,61.9021,VALID,624.555,VALID,26.6636,VALID,189,VALID,0.167187,
2015-11-12, 09:22:04,VALID,918.368,VALID,0,VALID,61.5438,VALID,637.341,VALID,26.7243,VALID,188,VALID,0,
2015-11-12, 09:23:04,VALID,918.351,VALID,0,VALID,62.9008,VALID,642.928,VALID,26.7809,VALID,204,VALID,0,
2015-11-12, 09:24:04,VALID,918.392,VALID,0,VALID,59.6456,VALID,646.259,VALID,26.7829,VALID,190,VALID,0.135937,
2015-11-12, 09:25:04,VALID,918.401,VALID,0,VALID,59.6532,VALID,653.672,VALID,26.7809,VALID,189,VALID,0.298047,
2015-11-12, 09:26:04,VALID,918.363,VALID,0,VALID,59.9505,VALID,658.399,VALID,26.8199,VALID,193,VALID,0,
2015-11-12, 09:27:04,VALID,918.343,VALID,0,VALID,61.0254,VALID,641.961,VALID,26.9372,VALID,191,VALID,0,
2015-11-12, 09:28:04,VALID,918.39,VALID,0,VALID,58.9443,VALID,646.796,VALID,26.9567,VALID,195,VALID,0.673047,
2015-11-12, 09:29:04,VALID,918.382,VALID,0,VALID,59.5313,VALID,659.151,VALID,26.9567,VALID,199,VALID,0.408203,
2015-11-12, 09:30:04,VALID,918.368,VALID,0,VALID,59.9048,VALID,649.697,VALID,26.9372,VALID,163,VALID,0.0222656,
2015-11-12, 09:31:04,VALID,918.366,VALID,0,VALID,62.2071,VALID,650.019,VALID,26.6832,VALID,119,VALID,0.166406,
2015-11-12, 09:32:04,VALID,918.362,VALID,0,VALID,61.46,VALID,605.968,VALID,26.6636,VALID,193,VALID,0.473047,
2015-11-12, 09:33:04,VALID,918.339,VALID,0,VALID,61.0636,VALID,610.803,VALID,26.6421,VALID,189,VALID,0.157031,
2015-11-12, 09:34:04,VALID,918.345,VALID,0,VALID,63.5259,VALID,575.67,VALID,26.7223,VALID,125,VALID,1.01758,
2015-11-12, 09:35:04,VALID,918.329,VALID,0,VALID,64.4255,VALID,568.579,VALID,26.6246,VALID,116,VALID,0,
2015-11-12, 09:36:04,VALID,918.374,VALID,0,VALID,64.7762,VALID,613.274,VALID,26.6441,VALID,134,VALID,0,
2015-11-12, 09:37:04,VALID,918.348,VALID,0,VALID,61.6658,VALID,609.084,VALID,26.7809,VALID,193,VALID,0.434766,
2015-11-12, 09:38:04,VALID,918.343,VALID,0,VALID,62.1537,VALID,597.803,VALID,26.8785,VALID,193,VALID,0.130859,
2015-11-12, 09:39:04,VALID,918.368,VALID,0,VALID,60.5375,VALID,562.132,VALID,26.9372,VALID,173,VALID,0.000390625,
2015-11-12, 09:40:04,VALID,918.321,VALID,0,VALID,61.6048,VALID,510.883,VALID,26.6246,VALID,147,VALID,0.401563,
2015-11-12, 09:41:04,VALID,918.333,VALID,0,VALID,63.5412,VALID,495.089,VALID,26.4683,VALID,163,VALID,0,
2015-11-12, 09:42:04,VALID,918.317,VALID,0,VALID,62.9008,VALID,437.608,VALID,26.4468,VALID,157,VALID,0,
2015-11-12, 09:43:04,VALID,918.295,VALID,0,VALID,63.8614,VALID,509.593,VALID,26.566,VALID,157,VALID,0,
2015-11-12, 09:44:04,VALID,918.311,VALID,0,VALID,65.3632,VALID,476.501,VALID,26.6246,VALID,157,VALID,0,
2015-11-12, 09:45:04,VALID,918.276,VALID,0,VALID,65.7138,VALID,377.763,VALID,26.5444,VALID,108,VALID,0.271484,
2015-11-12, 09:46:04,VALID,918.272,VALID,0,VALID,65.2183,VALID,389.367,VALID,26.5074,VALID,61,VALID,0.796875,
2015-11-12, 09:47:04,VALID,918.257,VALID,0,VALID,66.7125,VALID,429.55,VALID,26.312,VALID,54,VALID,1.2082,
2015-11-12, 09:48:04,VALID,918.251,VALID,0,VALID,67.1089,VALID,430.087,VALID,26.1753,VALID,55,VALID,0.569141,
2015-11-12, 09:49:04,VALID,918.262,VALID,0,VALID,68.0237,VALID,455.873,VALID,26.019,VALID,79,VALID,0,
2015-11-12, 09:50:04,VALID,918.22,VALID,0,VALID,64.8524,VALID,435.996,VALID,25.8823,VALID,72,VALID,0,
2015-11-12, 09:51:04,VALID,918.207,VALID,0,VALID,66.5448,VALID,402.797,VALID,25.8042,VALID,64,VALID,0.868359,
2015-11-12, 09:52:04,VALID,918.186,VALID,0,VALID,67.8865,VALID,365.3,VALID,25.7241,VALID,56,VALID,0.125391,
2015-11-12, 09:53:04,VALID,918.208,VALID,0,VALID,64.982,VALID,321.034,VALID,25.7241,VALID,107,VALID,0.0191406,
2015-11-12, 09:54:04,VALID,918.186,VALID,0,VALID,64.5398,VALID,283.107,VALID,25.8628,VALID,97,VALID,0.233984,
2015-11-12, 09:55:04,VALID,918.204,VALID,0,VALID,63.0533,VALID,263.231,VALID,25.8804,VALID,97,VALID,0.0195313,
2015-11-12, 09:56:04,VALID,918.185,VALID,0,VALID,64.9363,VALID,254.528,VALID,25.8999,VALID,98,VALID,0,
2015-11-12, 09:57:04,VALID,918.184,VALID,0,VALID,66.156,VALID,250.23,VALID,26.0581,VALID,97,VALID,0,
2015-11-12, 09:58:04,VALID,918.195,VALID,0,VALID,65.5919,VALID,249.263,VALID,26.2925,VALID,97,VALID,0,
2015-11-12, 09:59:04,VALID,918.185,VALID,0,VALID,61.4219,VALID,250.338,VALID,26.3706,VALID,107,VALID,0,
2015-11-12, 10:00:04,VALID,918.187,VALID,0,VALID,62.0927,VALID,251.95,VALID,26.4292,VALID,107,VALID,0,
2015-11-12, 10:01:04,VALID,918.179,VALID,0,VALID,58.3344,VALID,253.883,VALID,26.5074,VALID,107,VALID,0,
2015-11-12, 10:02:04,VALID,918.179,VALID,0,VALID,59.0738,VALID,256.14,VALID,26.5269,VALID,107,VALID,0,
2015-11-12, 10:03:04,VALID,918.167,VALID,0,VALID,59.2492,VALID,258.826,VALID,26.6832,VALID,107,VALID,0,
2015-11-12, 10:04:04,VALID,918.18,VALID,0,VALID,60.5604,VALID,262.156,VALID,26.8179,VALID,107,VALID,0,
2015-11-12, 10:05:04,VALID,918.171,VALID,0,VALID,60.629,VALID,266.454,VALID,26.9351,VALID,102,VALID,0,
2015-11-12, 10:06:04,VALID,918.146,VALID,0,VALID,62.2147,VALID,273.115,VALID,26.9156,VALID,66,VALID,0.0234375,
2015-11-12, 10:07:04,VALID,918.142,VALID,0,VALID,61.4905,VALID,286.223,VALID,26.8395,VALID,37,VALID,0.104687,
2015-11-12, 10:08:04,VALID,918.158,VALID,0,VALID,59.3864,VALID,314.48,VALID,26.9156,VALID,40,VALID,0,
2015-11-12, 10:09:04,VALID,918.131,VALID,0,VALID,60.4613,VALID,363.366,VALID,26.8765,VALID,81,VALID,0,
2015-11-12, 10:10:04,VALID,918.126,VALID,0,VALID,60.3927,VALID,424.822,VALID,26.8765,VALID,77,VALID,0,
2015-11-12, 10:11:04,VALID,918.1,VALID,0,VALID,60.4842,VALID,493.262,VALID,26.9351,VALID,77,VALID,0,
2015-11-12, 10:12:04,VALID,918.115,VALID,0,VALID,60.2021,VALID,552.247,VALID,27.0719,VALID,77,VALID,0,
2015-11-12, 10:13:04,VALID,918.076,VALID,0,VALID,61.3304,VALID,605.323,VALID,27.1109,VALID,77,VALID,0,
2015-11-12, 10:14:04,VALID,918.073,VALID,0,VALID,58.4792,VALID,616.82,VALID,27.3063,VALID,82,VALID,0,
2015-11-12, 10:15:04,VALID,918.09,VALID,0,VALID,57.0841,VALID,631.109,VALID,27.3258,VALID,86,VALID,0,
2015-11-12, 10:16:04,VALID,918.08,VALID,0,VALID,56.4285,VALID,663.879,VALID,27.3258,VALID,98,VALID,0,
2015-11-12, 10:18:04,VALID,918.083,VALID,0,VALID,52.2204,VALID,670.54,VALID,27.6385,VALID,111,VALID,0,
2015-11-12, 10:19:04,VALID,918.072,VALID,0,VALID,51.4504,VALID,668.177,VALID,27.7557,VALID,111,VALID,0,
2015-11-12, 10:20:04,VALID,918.092,VALID,0,VALID,50.2536,VALID,670.97,VALID,27.836,VALID,111,VALID,0,
2015-11-12, 10:21:04,VALID,918.112,VALID,0,VALID,49.0567,VALID,629.175,VALID,27.9923,VALID,111,VALID,0,
2015-11-12, 10:22:04,VALID,918.071,VALID,0,VALID,49.2549,VALID,639.167,VALID,28.09,VALID,111,VALID,0,
2015-11-12, 10:23:04,VALID,918.064,VALID,0,VALID,49.4302,VALID,638.523,VALID,28.2268,VALID,111,VALID,0,
2015-11-12, 10:24:04,VALID,918.029,VALID,0,VALID,50.6652,VALID,621.225,VALID,28.2855,VALID,111,VALID,0,
2015-11-12, 10:25:04,VALID,918.059,VALID,0,VALID,49.4455,VALID,628.638,VALID,28.4027,VALID,110,VALID,0,
2015-11-12, 10:26:04,VALID,918.063,VALID,0,VALID,49.6742,VALID,599.951,VALID,28.6373,VALID,111,VALID,0,
2015-11-12, 10:27:04,VALID,918.047,VALID,0,VALID,51.8773,VALID,584.48,VALID,28.6742,VALID,130,VALID,0.0652344,
2015-11-12, 10:28:04,VALID,918.025,VALID,0,VALID,49.4455,VALID,629.498,VALID,28.6568,VALID,155,VALID,0,
2015-11-12, 10:29:04,VALID,918.016,VALID,0,VALID,47.7302,VALID,688.375,VALID,28.4809,VALID,146,VALID,0.00429688,
2015-11-12, 10:30:04,VALID,918.026,VALID,0,VALID,50.3145,VALID,701.698,VALID,28.3832,VALID,151,VALID,0,
2015-11-12, 10:31:04,VALID,918.049,VALID,0,VALID,47.9589,VALID,667.317,VALID,28.305,VALID,154,VALID,0.0839844,
2015-11-12, 10:32:04,VALID,918.046,VALID,0,VALID,46.1979,VALID,670.003,VALID,28.1487,VALID,154,VALID,0,
2015-11-12, 10:33:04,VALID,918.035,VALID,0,VALID,48.6526,VALID,646.044,VALID,28.3832,VALID,154,VALID,0,
2015-11-12, 10:34:04,VALID,918.055,VALID,0,VALID,47.8751,VALID,693.64,VALID,28.6764,VALID,154,VALID,0,
2015-11-12, 10:35:04,VALID,918.024,VALID,0,VALID,47.0822,VALID,724.368,VALID,28.5374,VALID,141,VALID,0,
2015-11-12, 10:36:04,VALID,918.029,VALID,0,VALID,49.9258,VALID,720.178,VALID,28.3419,VALID,105,VALID,0.0121094,
2015-11-12, 10:37:04,VALID,918.049,VALID,0,VALID,52.8303,VALID,740.27,VALID,28.127,VALID,107,VALID,0,
2015-11-12, 10:38:04,VALID,917.996,VALID,0,VALID,52.7083,VALID,736.079,VALID,28.1074,VALID,103,VALID,0,
2015-11-12, 10:39:04,VALID,918.022,VALID,0,VALID,54.6904,VALID,746.609,VALID,28.1465,VALID,103,VALID,0,
2015-11-12, 10:40:04,VALID,917.987,VALID,0,VALID,50.9168,VALID,769.494,VALID,28.305,VALID,114,VALID,0,
2015-11-12, 10:41:04,VALID,918.007,VALID,0,VALID,50.8558,VALID,772.18,VALID,28.4006,VALID,114,VALID,0,
2015-11-12, 10:42:04,VALID,917.981,VALID,0,VALID,50.3145,VALID,757.03,VALID,28.6938,VALID,114,VALID,0,
2015-11-12, 10:43:04,VALID,917.982,VALID,0,VALID,50.3145,VALID,747.361,VALID,28.9674,VALID,114,VALID,0,
2015-11-12, 10:44:04,VALID,917.946,VALID,0,VALID,51.6563,VALID,766.055,VALID,29.2237,VALID,96,VALID,0,
2015-11-12, 10:45:04,VALID,917.974,VALID,0,VALID,48.7441,VALID,771.642,VALID,29.3584,VALID,73,VALID,0,
2015-11-12, 10:46:04,VALID,917.96,VALID,0,VALID,50.5128,VALID,779.486,VALID,29.202,VALID,74,VALID,0,
2015-11-12, 10:47:04,VALID,917.947,VALID,0,VALID,53.5088,VALID,775.295,VALID,29.202,VALID,74,VALID,0,
2015-11-12, 10:48:04,VALID,917.93,VALID,0,VALID,51.2294,VALID,781.849,VALID,29.1998,VALID,73,VALID,0,